KAL843 RKSI-ZSQD

Flight info

Callsign KAL843
Flight time 0h 42m
Altitude 28000
Route NOPIK Y697 AGAVO/K0852S0855 W209 LATUX
Aircraft B738/M-SDE2E3FGHIRWXY/LB1

Departure

Time 2026-04-22 10:38
Airport Incheon International Airport (RKSI)

Arrival

Time 2026-04-22 11:20
Airport Qingdao Jiaodong International Airport (ZSQD)
Time Latitude Longitude Altitude Speed Heading
2026-04-22 10:04 37.46209 126.43459 32 ft 0 kts 302°
2026-04-22 10:25 37.46208 126.43461 32 ft 1 kts 302°
2026-04-22 10:26 37.46199 126.43479 30 ft 3 kts 302°
2026-04-22 10:26 37.46188 126.43500 29 ft 3 kts 300°
2026-04-22 10:26 37.46179 126.43522 29 ft 3 kts 290°
2026-04-22 10:26 37.46173 126.43547 32 ft 3 kts 280°
2026-04-22 10:27 37.46171 126.43572 32 ft 3 kts 271°
2026-04-22 10:27 37.46172 126.43597 32 ft 3 kts 262°
2026-04-22 10:27 37.46175 126.43622 28 ft 3 kts 255°
2026-04-22 10:27 37.46181 126.43646 29 ft 3 kts 247°
2026-04-22 10:28 37.46190 126.43669 30 ft 3 kts 240°
2026-04-22 10:28 37.46200 126.43689 31 ft 2 kts 234°
2026-04-22 10:28 37.46202 126.43693 31 ft 0 kts 234°
2026-04-22 10:31 37.46201 126.43691 31 ft 2 kts 234°
2026-04-22 10:31 37.46175 126.43645 29 ft 10 kts 235°
2026-04-22 10:31 37.46134 126.43572 32 ft 10 kts 234°
2026-04-22 10:31 37.46094 126.43501 31 ft 10 kts 234°
2026-04-22 10:32 37.46055 126.43432 32 ft 10 kts 235°
2026-04-22 10:32 37.46017 126.43364 31 ft 9 kts 234°
2026-04-22 10:32 37.45980 126.43298 32 ft 9 kts 234°
2026-04-22 10:32 37.45943 126.43235 32 ft 9 kts 228°
2026-04-22 10:33 37.45889 126.43218 32 ft 9 kts 158°
2026-04-22 10:33 37.45840 126.43259 32 ft 8 kts 144°
2026-04-22 10:33 37.45785 126.43308 32 ft 12 kts 144°
2026-04-22 10:33 37.45695 126.43389 30 ft 20 kts 144°
2026-04-22 10:34 37.45564 126.43505 30 ft 25 kts 145°
2026-04-22 10:34 37.45424 126.43629 32 ft 24 kts 144°
2026-04-22 10:34 37.45293 126.43746 32 ft 23 kts 145°
2026-04-22 10:34 37.45166 126.43859 32 ft 22 kts 144°
2026-04-22 10:35 37.45043 126.43969 30 ft 21 kts 144°
2026-04-22 10:35 37.44923 126.44076 32 ft 21 kts 144°
2026-04-22 10:35 37.44807 126.44179 32 ft 20 kts 145°
2026-04-22 10:35 37.44695 126.44279 31 ft 20 kts 144°
2026-04-22 10:36 37.44585 126.44376 30 ft 19 kts 144°
2026-04-22 10:36 37.44495 126.44413 30 ft 10 kts 210°
2026-04-22 10:36 37.44451 126.44344 32 ft 10 kts 234°
2026-04-22 10:36 37.44411 126.44273 32 ft 10 kts 235°
2026-04-22 10:37 37.44378 126.44200 31 ft 10 kts 255°
2026-04-22 10:37 37.44409 126.44115 30 ft 0 kts 324°
2026-04-22 10:37 37.44421 126.44104 30 ft 16 kts 324°
2026-04-22 10:38 37.44718 126.43841 32 ft 88 kts 324°
2026-04-22 10:38 37.45394 126.43239 32 ft 148 kts 324°
2026-04-22 10:38 37.46354 126.42366 178 ft 186 kts 324°
2026-04-22 10:38 37.47456 126.41408 812 ft 196 kts 325°
2026-04-22 10:39 37.48439 126.40289 1563 ft 193 kts 307°
2026-04-22 10:39 37.49231 126.38892 2073 ft 205 kts 307°
2026-04-22 10:39 37.50113 126.37366 2407 ft 223 kts 298°
2026-04-22 10:39 37.50470 126.35400 2866 ft 244 kts 274°
2026-04-22 10:40 37.50499 126.33215 3467 ft 255 kts 273°
2026-04-22 10:40 37.50536 126.30967 4246 ft 258 kts 273°
2026-04-22 10:40 37.50582 126.28684 5016 ft 263 kts 274°
2026-04-22 10:40 37.50633 126.26358 5758 ft 267 kts 274°
2026-04-22 10:41 37.50688 126.23994 6499 ft 272 kts 274°
2026-04-22 10:41 37.50744 126.21619 7217 ft 275 kts 274°
2026-04-22 10:41 37.50771 126.19187 7960 ft 279 kts 267°
2026-04-22 10:41 37.50147 126.16850 8639 ft 288 kts 240°
2026-04-22 10:42 37.49058 126.14755 9411 ft 291 kts 238°
2026-04-22 10:42 37.47921 126.12627 10101 ft 295 kts 238°
2026-04-22 10:42 37.46746 126.10423 10440 ft 312 kts 238°
2026-04-22 10:42 37.45498 126.08066 10610 ft 334 kts 238°
2026-04-22 10:43 37.44188 126.05576 10771 ft 354 kts 238°
2026-04-22 10:43 37.42793 126.02920 10907 ft 373 kts 238°
2026-04-22 10:43 37.41375 126.00091 11103 ft 388 kts 245°
2026-04-22 10:43 37.40651 125.96824 11586 ft 389 kts 267°
2026-04-22 10:44 37.40574 125.93432 12295 ft 388 kts 271°
2026-04-22 10:44 37.40562 125.90054 12940 ft 390 kts 271°
2026-04-22 10:44 37.40551 125.86629 13571 ft 393 kts 271°
2026-04-22 10:44 37.40530 125.83186 14179 ft 394 kts 271°
2026-04-22 10:45 37.40496 125.79728 14846 ft 394 kts 270°
2026-04-22 10:45 37.40454 125.76274 15539 ft 393 kts 270°
2026-04-22 10:45 37.40408 125.72831 16241 ft 392 kts 270°
2026-04-22 10:45 37.40362 125.69433 16876 ft 393 kts 270°
2026-04-22 10:46 37.40313 125.65975 17459 ft 394 kts 270°
2026-04-22 10:46 37.40265 125.62511 18035 ft 396 kts 270°
2026-04-22 10:46 37.40219 125.59075 18547 ft 397 kts 270°
2026-04-22 10:46 37.40172 125.55590 19041 ft 397 kts 270°
2026-04-22 10:47 37.40124 125.52103 19548 ft 397 kts 270°
2026-04-22 10:47 37.40077 125.48667 20042 ft 398 kts 269°
2026-04-22 10:47 37.40028 125.45173 20525 ft 398 kts 269°
2026-04-22 10:47 37.39978 125.41677 21000 ft 399 kts 269°
2026-04-22 10:48 37.39927 125.38188 21444 ft 400 kts 269°
2026-04-22 10:48 37.39875 125.34691 21895 ft 400 kts 269°
2026-04-22 10:48 37.39822 125.31184 22330 ft 401 kts 269°
2026-04-22 10:48 37.39769 125.27716 22750 ft 402 kts 269°
2026-04-22 10:49 37.39713 125.24188 23158 ft 403 kts 269°
2026-04-22 10:49 37.39655 125.20648 23549 ft 404 kts 269°
2026-04-22 10:49 37.39596 125.17105 23868 ft 405 kts 269°
2026-04-22 10:49 37.39537 125.13598 24175 ft 405 kts 269°
2026-04-22 10:50 37.39476 125.10043 24484 ft 406 kts 269°
2026-04-22 10:50 37.39415 125.06482 24784 ft 407 kts 268°
2026-04-22 10:50 37.39353 125.02914 25073 ft 408 kts 268°
2026-04-22 10:50 37.39290 124.99373 25267 ft 411 kts 268°
2026-04-22 10:51 37.39225 124.95755 25490 ft 413 kts 268°
2026-04-22 10:51 37.39159 124.92135 25848 ft 412 kts 268°
2026-04-22 10:51 37.39093 124.88543 26300 ft 408 kts 268°
2026-04-22 10:51 37.39026 124.85027 26789 ft 404 kts 268°
2026-04-22 10:52 37.38956 124.81498 27267 ft 401 kts 268°
2026-04-22 10:52 37.38884 124.77986 27651 ft 400 kts 268°
2026-04-22 10:52 37.38811 124.74478 27983 ft 401 kts 268°
2026-04-22 10:52 37.38737 124.70960 27993 ft 404 kts 268°
2026-04-22 10:53 37.38376 124.54164 28071 ft 406 kts 268°
2026-04-22 10:53 37.33281 124.26759 27976 ft 426 kts 233°
2026-04-22 10:53 37.17416 124.05420 27969 ft 400 kts 248°
2026-04-22 10:53 37.04648 123.84349 28126 ft 438 kts 217°
2026-04-22 10:54 37.01809 123.82895 28048 ft 448 kts 201°
2026-04-22 10:54 36.98762 123.82189 27988 ft 446 kts 200°
2026-04-22 10:54 36.93049 123.79857 28050 ft 433 kts 212°
2026-04-22 10:54 36.75222 123.65671 28013 ft 420 kts 223°
2026-04-22 10:55 36.55840 123.48627 27979 ft 429 kts 218°
2026-04-22 10:55 36.47223 123.41796 27989 ft 429 kts 219°
2026-04-22 10:55 36.44776 123.39690 27997 ft 426 kts 223°
2026-04-22 10:55 36.35190 123.24363 28073 ft 410 kts 243°
2026-04-22 10:56 36.26170 122.98136 28045 ft 416 kts 258°
2026-04-22 10:56 36.24834 122.91168 28009 ft 419 kts 253°
2026-04-22 10:57 36.11095 122.50162 27938 ft 420 kts 246°
2026-04-22 10:57 36.01421 122.24014 27970 ft 415 kts 247°
2026-04-22 10:57 35.92315 121.98038 28045 ft 414 kts 247°
2026-04-22 10:58 35.76798 121.55368 27979 ft 416 kts 246°
2026-04-22 10:58 35.74449 121.48891 28010 ft 416 kts 246°
2026-04-22 10:59 35.72080 121.42388 28002 ft 417 kts 246°
2026-04-22 10:59 35.70886 121.39128 28000 ft 417 kts 246°
2026-04-22 10:59 35.69690 121.35873 28001 ft 417 kts 246°
2026-04-22 11:00 35.52284 120.88985 27987 ft 419 kts 246°
2026-04-22 11:00 35.49618 120.81838 27995 ft 419 kts 246°
2026-04-22 11:00 35.47368 120.69982 28023 ft 420 kts 266°
2026-04-22 11:00 35.47198 120.60235 26735 ft 427 kts 279°
2026-04-22 11:01 35.47863 120.57929 26187 ft 435 kts 293°
2026-04-22 11:01 35.50233 120.53923 25257 ft 441 kts 308°
2026-04-22 11:01 35.51726 120.52202 24817 ft 443 kts 315°
2026-04-22 11:01 35.54347 120.50156 24152 ft 451 kts 329°
2026-04-22 11:02 35.58194 120.48222 23237 ft 449 kts 334°
2026-04-22 11:02 35.60139 120.47313 22773 ft 447 kts 334°
2026-04-22 11:02 35.64003 120.45525 21895 ft 440 kts 334°
2026-04-22 11:02 35.66850 120.44187 21264 ft 434 kts 334°
2026-04-22 11:03 35.69622 120.42863 20654 ft 429 kts 334°
2026-04-22 11:03 35.71494 120.41959 20268 ft 425 kts 334°
2026-04-22 11:03 35.74212 120.40637 19659 ft 421 kts 334°
2026-04-22 11:03 35.76925 120.39310 19059 ft 416 kts 335°
2026-04-22 11:04 35.79605 120.37998 18466 ft 412 kts 335°
2026-04-22 11:04 35.82265 120.36694 17806 ft 408 kts 335°
2026-04-22 11:04 35.84885 120.35410 17165 ft 403 kts 336°
2026-04-22 11:04 35.87452 120.34151 16566 ft 399 kts 336°
2026-04-22 11:05 35.90030 120.32887 16187 ft 397 kts 337°
2026-04-22 11:05 35.92554 120.31649 16064 ft 387 kts 337°
2026-04-22 11:05 35.95016 120.30440 15959 ft 373 kts 337°
2026-04-22 11:05 35.97438 120.29274 15196 ft 375 kts 341°
2026-04-22 11:06 36.00028 120.28658 14363 ft 381 kts 354°
2026-04-22 11:06 36.02637 120.28395 13784 ft 378 kts 356°
2026-04-22 11:06 36.05262 120.28140 13206 ft 373 kts 356°
2026-04-22 11:06 36.07838 120.27876 12619 ft 370 kts 356°
2026-04-22 11:07 36.10373 120.27599 12012 ft 367 kts 356°
2026-04-22 11:07 36.12907 120.27310 11423 ft 364 kts 356°
2026-04-22 11:07 36.15399 120.27019 11142 ft 353 kts 356°
2026-04-22 11:07 36.17801 120.26733 11027 ft 338 kts 356°
2026-04-22 11:08 36.20076 120.26463 10952 ft 324 kts 356°
2026-04-22 11:08 36.22278 120.26202 10848 ft 312 kts 356°
2026-04-22 11:08 36.24401 120.25949 10756 ft 300 kts 356°
2026-04-22 11:08 36.26444 120.25706 10669 ft 289 kts 356°
2026-04-22 11:09 36.28425 120.25468 10522 ft 281 kts 356°
2026-04-22 11:09 36.30322 120.25010 10258 ft 273 kts 347°
2026-04-22 11:09 36.32095 120.24321 9937 ft 268 kts 345°
2026-04-22 11:09 36.33863 120.23587 9487 ft 265 kts 345°
2026-04-22 11:10 36.35598 120.22869 9153 ft 260 kts 345°
2026-04-22 11:10 36.37314 120.22170 8871 ft 259 kts 346°
2026-04-22 11:10 36.39000 120.21492 8594 ft 258 kts 346°
2026-04-22 11:10 36.40707 120.20812 8315 ft 256 kts 346°
2026-04-22 11:11 36.42409 120.20137 8056 ft 255 kts 345°
2026-04-22 11:11 36.44101 120.19470 7764 ft 255 kts 345°
2026-04-22 11:11 36.45795 120.18805 7467 ft 255 kts 345°
2026-04-22 11:11 36.47489 120.18140 7190 ft 254 kts 346°
2026-04-22 11:12 36.49158 120.17486 6919 ft 254 kts 346°
2026-04-22 11:12 36.50846 120.16824 6643 ft 254 kts 346°
2026-04-22 11:12 36.52535 120.16162 6368 ft 254 kts 346°
2026-04-22 11:12 36.54219 120.15501 6105 ft 253 kts 346°
2026-04-22 11:13 36.55877 120.14849 5985 ft 245 kts 346°
2026-04-22 11:13 36.57464 120.14223 5860 ft 238 kts 346°
2026-04-22 11:13 36.59018 120.13611 5755 ft 230 kts 346°
2026-04-22 11:13 36.60508 120.12994 5658 ft 223 kts 339°
2026-04-22 11:14 36.61669 120.11712 5564 ft 231 kts 301°
2026-04-22 11:14 36.62034 120.09753 5370 ft 238 kts 266°
2026-04-22 11:14 36.61672 120.07749 5173 ft 239 kts 253°
2026-04-22 11:14 36.61146 120.05775 4931 ft 240 kts 252°
2026-04-22 11:15 36.60616 120.03810 4680 ft 239 kts 252°
2026-04-22 11:15 36.60098 120.01854 4421 ft 238 kts 252°
2026-04-22 11:15 36.59534 119.99930 4192 ft 236 kts 240°
2026-04-22 11:15 36.58349 119.98629 3966 ft 227 kts 194°
2026-04-22 11:16 36.56854 119.98694 3782 ft 214 kts 151°
2026-04-22 11:16 36.55533 119.99530 3605 ft 216 kts 153°
2026-04-22 11:16 36.54131 120.00258 3380 ft 219 kts 156°
2026-04-22 11:16 36.52735 120.00948 3259 ft 213 kts 157°
2026-04-22 11:17 36.51334 120.01558 3002 ft 213 kts 159°
2026-04-22 11:17 36.49930 120.02118 2729 ft 210 kts 160°
2026-04-22 11:17 36.48581 120.02646 2454 ft 195 kts 160°
2026-04-22 11:17 36.47338 120.03134 2188 ft 179 kts 160°
2026-04-22 11:18 36.46196 120.03584 1984 ft 164 kts 160°
2026-04-22 11:18 36.45103 120.04014 1759 ft 164 kts 160°
2026-04-22 11:18 36.44046 120.04431 1504 ft 154 kts 160°
2026-04-22 11:18 36.43054 120.04822 1318 ft 147 kts 160°
2026-04-22 11:19 36.42086 120.05205 1099 ft 145 kts 160°
2026-04-22 11:19 36.41131 120.05581 934 ft 143 kts 161°
2026-04-22 11:19 36.40166 120.05960 719 ft 146 kts 162°
2026-04-22 11:19 36.39216 120.06346 544 ft 140 kts 161°
2026-04-22 11:20 36.38266 120.06730 370 ft 142 kts 162°
2026-04-22 11:20 36.37335 120.07076 140 ft 139 kts 161°
2026-04-22 11:20 36.36414 120.07444 40 ft 129 kts 163°
2026-04-22 11:20 36.35783 120.07686 34 ft 46 kts 162°
2026-04-22 11:21 36.35594 120.07804 36 ft 30 kts 143°
2026-04-22 11:21 36.35477 120.07953 37 ft 8 kts 125°
2026-04-22 11:21 36.36765 120.07308 38 ft 141 kts 161°
2026-04-22 11:22 36.38254 120.06735 367 ft 142 kts 162°
2026-04-22 11:22 36.37964 120.06841 285 ft 141 kts 163°
2026-04-22 11:22 36.37038 120.07199 86 ft 141 kts 161°
2026-04-22 11:22 36.36160 120.07538 38 ft 106 kts 163°
2026-04-22 11:23 36.35475 120.07957 36 ft 3 kts 124°
2026-04-22 11:23 36.35451 120.07995 37 ft 6 kts 133°
2026-04-22 11:23 36.35420 120.08026 36 ft 6 kts 149°
2026-04-22 11:23 36.35383 120.08049 34 ft 6 kts 148°
2026-04-22 11:24 36.35357 120.08085 36 ft 6 kts 157°
2026-04-22 11:24 36.35317 120.08087 36 ft 6 kts 206°
2026-04-22 11:24 36.35319 120.08043 36 ft 6 kts 317°
2026-04-22 11:24 36.35416 120.08029 36 ft 26 kts 352°
2026-04-22 11:25 36.35670 120.07951 35 ft 47 kts 345°
2026-04-22 11:25 36.35854 120.07949 37 ft 18 kts 84°
2026-04-22 11:25 36.35867 120.08102 36 ft 17 kts 71°
2026-04-22 11:25 36.35945 120.08210 36 ft 17 kts 61°
2026-04-22 11:26 36.36021 120.08313 35 ft 16 kts 22°
2026-04-22 11:26 36.36096 120.08270 36 ft 11 kts 292°
2026-04-22 11:26 36.36153 120.08246 36 ft 10 kts 12°
2026-04-22 11:26 36.36187 120.08255 36 ft 1 kts 12°
2026-04-22 11:27 36.36190 120.08256 36 ft 0 kts 12°